This demonstration page uses our WeatherBlox Daily Observations layout. Learn more.

Hourly Observations for August 21, 2018

Temp ( °F °C ) Dew Point ( °F °C ) Humidity (%) Winds ( mph kmh ) Pressure ( in mb ) Visibility ( mi km ) Precip ( " mm )
12:15 am 00:15 Clear 58 14.7 57 13.9 95 95 NNW 5 7 30.09 1019 10 16.09344 0 0
1:35 am 01:35 Clear 57 14.1 56 13.5 96 96 NNW 3 6 30.09 1019 10 16.09344 0 0
1:55 am 01:55 Clear 57 13.7 56 13.3 97 97 NW 3 6 30.15 1021 10 16.09344 0 0
2:15 am 02:15 Clear 55 13 55 12.9 99 99 NW 5 7 30.15 1021 7 11.265408 0 0
2:35 am 02:35 Clear 56 13.1 55 13 99 99 WNW 6 9 30.15 1021 10 16.09344 0 0
2:55 am 02:55 Clear 55 13 55 12.8 99 99 WNW 7 11 30.15 1021 10 16.09344 0 0
3:15 am 03:15 Clear 55 12.7 55 12.5 99 99 NW 3 6 30.15 1021 7 11.265408 0 0
3:35 am 03:35 Clear 55 12.8 55 12.6 99 99 NNW 3 6 30.15 1021 7 11.265408 0 0
3:55 am 03:55 Clear 55 12.6 55 12.5 99 99 WNW 6 9 30.15 1021 7 11.265408 0 0
4:15 am 04:15 Clear 55 12.5 54 12.4 99 99 WNW 7 11 30.15 1021 7 11.265408 0 0
4:35 am 04:35 Clear 54 12.3 54 12.3 100 100 NW 5 7 30.18 1022 7 11.265408 0 0
4:55 am 04:55 Clear 55 12.5 55 12.5 100 100 N 5 7 30.15 1021 7 11.265408 0 0
5:15 am 05:15 Clear 54 12.3 54 12.2 99 99 NNW 5 7 30.15 1021 7 11.265408 0 0
5:35 am 05:35 Clear 54 12.2 54 12.1 99 99 NNW 3 6 30.15 1021 7 11.265408 0 0
5:55 am 05:55 Clear 54 12.2 54 12.2 100 100 NNW 8 13 30.18 1022 7 11.265408 0 0
6:15 am 06:15 Clear 55 12.5 54 12.3 99 99 N 6 9 30.18 1022 10 16.09344 0 0
6:35 am 06:35 Clear 54 12.3 54 12.2 99 99 N 6 9 30.18 1022 7 11.265408 0 0
6:55 am 06:55 Sunny 54 12 53 11.9 99 99 N 5 7 30.18 1022 7 11.265408 0 0
7:15 am 07:15 Sunny with Mist and Fog 53 11.7 53 11.7 100 100 N 3 6 30.18 1022 5 8.04672 0 0
7:35 am 07:35 Sunny with Mist and Fog 54 12 54 12 100 100 Calm 30.18 1022 5 8.04672 0 0
7:55 am 07:55 Sunny with Mist and Fog 54 12.3 54 12.3 100 100 NW 6 9 30.21 1023 5 8.04672 0 0
8:15 am 08:15 Sunny with Mist and Fog 55 12.8 55 12.8 100 100 NW 5 7 30.21 1023 5 8.04672 0 0
8:35 am 08:35 Sunny with Mist and Fog 56 13.5 56 13.5 100 100 NNW 6 9 30.21 1023 5 8.04672 0 0
8:55 am 08:55 Sunny 58 14.2 57 13.7 97 97 NNW 5 7 30.21 1023 7 11.265408 0 0
9:15 am 09:15 Sunny 59 14.9 57 14.1 95 95 N 6 9 30.18 1022 7 11.265408 0 0
9:35 am 09:35 Sunny 60 15.4 58 14.5 94 94 N 5 7 30.18 1022 10 16.09344 0 0
9:55 am 09:55 Sunny 60 15.7 58 14.3 91 91 NW 6 9 30.21 1023 10 16.09344 0 0
10:15 am 10:15 Sunny 60 15.5 58 14.3 93 93 NNW 7 11 30.24 1024 10 16.09344 0 0
10:35 am 10:35 Sunny 60 15.3 58 14.2 93 93 NNW 6 9 30.21 1023 10 16.09344 0 0
10:55 am 10:55 Sunny 60 15.3 58 14.2 93 93 N 7 11 30.21 1023 10 16.09344 0 0
11:15 am 11:15 Sunny 61 15.9 58 14.5 91 91 NNE 8 13 30.21 1023 10 16.09344 0 0
11:35 am 11:35 Partly Cloudy 61 16 58 14.2 89 89 N 10 17 30.21 1023 10 16.09344 0 0
11:55 am 11:55 Cloudy 60 15.5 57 14.1 91 91 N 10 17 30.21 1023 10 16.09344 0 0
12:15 pm 12:15 Cloudy with Rain 59 15.1 57 14 93 93 NW 3 6 30.27 1025 7 11.265408 0 0
12:35 pm 12:35 Cloudy with Light Rain 59 15 58 14.5 97 97 NNW 6 9 30.27 1025 5 8.04672 0.03 0.762
12:55 pm 12:55 Cloudy with Light Rain 59 15 58 14.6 97 97 N 6 9 30.27 1025 7 11.265408 0.05 1.27
1:15 pm 13:15 Cloudy with Light Rain 60 15.3 58 14.7 96 96 N 6 9 30.24 1024 7 11.265408 0.01 0.254
1:35 pm 13:35 Cloudy with Light Rain 61 16 59 14.9 93 93 NNE 7 11 30.21 1023 7 11.265408 0.01 0.254
1:55 pm 13:55 Partly Cloudy 63 17 59 15.2 89 89 NNE 5 7 30.21 1023 10 16.09344 0.02 0.508
2:15 pm 14:15 Sunny 65 18.1 58 14.6 80 80 N 6 9 30.21 1023 10 16.09344 0 0
2:35 pm 14:35 Sunny 64 18 56 13.4 75 75 NE 7 11 30.18 1022 10 16.09344 0 0
2:55 pm 14:55 Sunny 64 18 57 14.1 78 78 N 7 11 30.18 1022 10 16.09344 0 0
3:15 pm 15:15 Partly Cloudy 65 18.6 58 14.2 76 76 NE 6 9 30.15 1021 10 16.09344 0 0
3:35 pm 15:35 Partly Cloudy 66 18.9 57 13.9 73 73 NNE 6 9 30.15 1021 10 16.09344 0 0
3:55 pm 15:55 Sunny 68 20 57 13.8 68 68 NNW 6 9 30.15 1021 10 16.09344 0 0
4:15 pm 16:15 Partly Cloudy 68 19.9 57 13.7 68 68 NNE 7 11 30.15 1021 10 16.09344 0 0
4:35 pm 16:35 Sunny 68 19.9 57 13.7 68 68 N 6 9 30.15 1021 10 16.09344 0 0
4:55 pm 16:55 Partly Cloudy 69 20.6 56 13.5 64 64 NNE 7 11 30.15 1021 10 16.09344 0 0
5:15 pm 17:15 Partly Cloudy 69 20.5 55 13 62 62 NE 9 15 30.15 1021 10 16.09344 0 0
5:35 pm 17:35 Sunny 69 20.8 56 13.3 62 62 NE 9 15 30.15 1021 10 16.09344 0 0
5:55 pm 17:55 Partly Cloudy 69 20.7 55 13 62 62 NNE 5 7 30.15 1021 10 16.09344 0 0
6:15 pm 18:15 Partly Cloudy 67 19.5 57 13.8 70 70 NNE 6 9 30.18 1022 10 16.09344 0 0
6:35 pm 18:35 Sunny 68 20.1 57 13.7 67 67 NNE 6 9 30.18 1022 10 16.09344 0 0
6:55 pm 18:55 Sunny 67 19.7 57 13.9 69 69 NNE 7 11 30.18 1022 10 16.09344 0 0
7:15 pm 19:15 Partly Cloudy 65 18.4 57 13.9 75 75 NNE 6 9 30.18 1022 10 16.09344 0 0
7:35 pm 19:35 Sunny 64 17.5 58 14.6 83 83 NNE 5 7 30.21 1023 10 16.09344 0 0
7:55 pm 19:55 Sunny 63 17.1 59 15 88 88 N 5 7 30.21 1023 10 16.09344 0 0
8:15 pm 20:15 Sunny 62 16.6 59 14.8 89 89 N 3 6 30.21 1023 10 16.09344 0 0
8:35 pm 20:35 Clear 62 16.5 59 14.8 90 90 N 5 7 30.21 1023 10 16.09344 0 0
8:55 pm 20:55 Mostly Cloudy with Mist and Fog 61 15.9 58 14.5 91 91 N 3 6 30.24 1024 1.75 2.816352 0 0
9:15 pm 21:15 Clear 60 15.5 58 14.6 94 94 NNE 3 6 30.24 1024 10 16.09344 0 0
9:35 pm 21:35 Clear 60 15.4 58 14.6 95 95 NNE 3 6 30.24 1024 10 16.09344 0 0
9:55 pm 21:55 Clear 59 15 57 14 94 94 NNE 5 7 30.27 1025 10 16.09344 0 0
10:15 pm 22:15 Clear 58 14.5 57 14 97 97 Calm 30.27 1025 10 16.09344 0 0
10:35 pm 22:35 Clear 58 14.4 56 13.6 95 95 Calm 30.27 1025 10 16.09344 0 0
10:55 pm 22:55 Clear 57 13.9 56 13.5 97 97 N 5 7 30.27 1025 10 16.09344 0 0
11:15 pm 23:15 Clear 57 13.7 56 13.3 97 97 NNE 5 7 30.27 1025 10 16.09344 0 0
11:35 pm 23:35 Clear 55 13 55 12.8 99 99 NNE 6 9 30.27 1025 10 16.09344 0 0
11:55 pm 23:55 Clear 56 13.1 55 13 99 99 Calm 30.27 1025 10 16.09344 0 0

Powered by AerisWeather